Location: Poughquag
(41.6090°N, 73.6820°W)
Time: 07:46:59
(UTC-05:00)

Altair - Pass Details

Date: 29 November 2023
Orbit: 1501 x 1682 km, 47.2° (Epoch: 02 March)

Event Time Altitude Azimuth Distance (km) Brightness Sun altitude
Rises 16:45:38 0° 296° (WNW) 4,651 10.6 -4.1°
Reaches altitude 10° 16:48:55 10° 289° (WNW) 3,659 10.3 -4.6°
Maximum altitude 16:57:05 38° 225° (SW) 2,154 9.0 -6.0°
Drops below altitude 10° 17:05:17 10° 162° (SSE) 3,670 9.6 -7.5°
Sets 17:08:36 0° 154° (SSE) 4,667 10.0 -8.0°
